Regional Weather Roundup
Issued by NWS

Home | Current Version | Previous Version | Graphics & Text | Print | Product List | Glossary On
Versions: 1 2 3 4 5 6 7 8 9 10 11 12 13 14 15 16 17 18 19 20 21 22 23 24 25 26 27 28 29 30 31 32 33 34 35 36 37 38 39 40 41 42 43 44 45 46 47 48 49 50
803
ASUS43 KMKX 260600
RWRWI

WISCONSIN REGIONAL WEATHER ROUNDUP
NATIONAL WEATHER SERVICE MILWAUKEE/SULLIVAN WI
100 AM CDT FRI MAY 26 2017

NOTE: "FAIR" INDICATES FEW OR NO CLOUDS BELOW 12,000 FEET WITH NO
SIGNIFICANT WEATHER AND/OR OBSTRUCTIONS TO VISIBILITY.

WIZ001-002-006>008-014>016-023>028-260700-
NORTHWEST WISCONSIN

CITY           SKY/WX    TMP DP  RH WIND       PRES   REMARKS
SUPERIOR ARPT  NOT AVBL
ASHLAND        PTCLDY    47  44  90 CALM      29.73S
6HR MIN TEMP:  43; 6HR MAX TEMP:  52;

HAYWARD        CLOUDY    57  51  80 CALM      29.73S
6HR MIN TEMP:  57; 6HR MAX TEMP:  70; 6HR PCP: TRACE;

SIREN          CLOUDY    59  54  84 CALM      29.73S
CUMBERLAND     CLOUDY    55  52  88 SE3       29.74R
RICE LAKE      LGT RAIN  59  54  84 CALM      29.75R
CHETEK         CLOUDY    58  56  94 CALM      29.74R
LADYSMITH      PTCLDY    57  54  89 CALM      29.76R
EAU CLAIRE     NOT AVBL
MENOMONIE      RAIN      59  56  88 CALM      29.73S
NEW RICHMOND   CLOUDY    59  54  83 S5        29.74R
OSCEOLA        CLOUDY    60  55  84 S5        29.75S
$$

WIZ003>005-009-010-017-018-260700-
NORTH CENTRAL WISCONSIN

CITY           SKY/WX    TMP DP  RH WIND       PRES   REMARKS
MANITOWISH WTR CLOUDY    59  47  64 SE8       29.76R
ARBOR VITAE    PTCLDY    59  48  65 SE9       29.76S
WOODRUFF       PTCLDY    59  48  65 SE9       29.76S
RHINELANDER    CLOUDY    58  51  78 SE7       29.78R
6HR MIN TEMP:  55; 6HR MAX TEMP:  69;

EAGLE RIVER    CLEAR     54  45  71 SE3       29.78S
LAND O LAKES   CLEAR     53  46  77 SE3       29.80S
PHILLIPS       CLOUDY    55  52  91 CALM      29.74S
6HR MIN TEMP:  53; 6HR MAX TEMP:  68;

TOMAHAWK       PTCLDY    54  50  87 E3        29.77R
MEDFORD        PTCLDY    54  51  89 CALM      29.76R
MERRILL        CLOUDY    58  53  81 SE6       29.76R
$$

WIZ029-030-035-036-043>047-260700-
CENTRAL WISCONSIN

CITY           SKY/WX    TMP DP  RH WIND       PRES   REMARKS
WAUSAU         CLOUDY    59  51  75 SE5       29.76R
6HR MIN TEMP:  57; 6HR MAX TEMP:  67;

MOSINEE        CLOUDY    55  52  88 E7        29.78R
MARSHFIELD     PTCLDY    57  50  77 S5        29.76R
6HR MIN TEMP:  56; 6HR MAX TEMP:  70;

STEVENS POINT  PTCLDY    54  49  85 CALM      29.78R
WAUPACA        CLOUDY    59  54  83 E7        29.78R
WAUTOMA        MOCLDY    53  51  93 CALM      29.78R
6HR MIN TEMP:  53; 6HR MAX TEMP:  70;

WISC RAPIDS    CLOUDY    55  51  86 S3        29.78R
6HR MIN TEMP:  55; 6HR MAX TEMP:  72; 6HR PCP: TRACE;

CAMP DOUGLAS   NOT AVBL
$$

WIZ011>013-019>022-031-037>040-048>050-260700-
NORTHEAST WISCONSIN

CITY           SKY/WX    TMP DP  RH WIND       PRES   REMARKS
ANTIGO         CLOUDY    53  51  92 SE6       29.80R
SHAWANO        PTCLDY    56  52  87 CALM      29.79R
OCONTO         PTCLDY    47  47  99 CALM      29.78S VSB 1
STURGEON BAY   PTCLDY    50  49  96 N5        29.79S
6HR MIN TEMP:  49; 6HR MAX TEMP:  63;

GREEN BAY      CLEAR     53  52  96 CALM      29.79R
6HR MIN TEMP:  52; 6HR MAX TEMP:  68;

MANITOWOC      NOT AVBL
APPLETON       MOCLDY    54  48  82 E5        29.77R
CLINTONVILLE   CLOUDY    55  50  82 E3        29.78F
OSHKOSH        CLEAR     56  52  86 CALM      29.77S
6HR MIN TEMP:  55; 6HR MAX TEMP:  67;

$$

WIZ032>034-041-042-053>061-260700-
SOUTHWEST WISCONSIN

CITY           SKY/WX    TMP DP  RH WIND       PRES   REMARKS
LA CROSSE      LGT RAIN  61  59  93 SE3       29.77R
6HR MIN TEMP:  61; 6HR MAX TEMP:  71; 6HR PCP:  0.03;

SPARTA         LGT RAIN  54  54  99 CALM      29.76R
VIROQUA        CLOUDY    59  55  85 MISG      29.79R
6HR MIN TEMP:  59; 6HR MAX TEMP:  69;

BOSCOBEL       CLOUDY    57  55  93 CALM      29.78R
6HR MIN TEMP:  55; 6HR MAX TEMP:  72; 6HR PCP: TRACE;

PRAIRIE DU CHI CLOUDY    60  52  76 CALM      29.77R
PLATTEVILLE    CLOUDY    61  56  84 S5        29.78R
$$

WIZ056-057-062-063-064-067-068-260700-
SOUTH CENTRAL WISCONSIN

CITY           SKY/WX    TMP DP  RH WIND       PRES   REMARKS
REEDSBURG      CLOUDY    56  56  97 CALM      29.76R
BARABOO/DELLS  CLOUDY    55  50  84 S3        29.77R
LONE ROCK      NOT AVBL
MINERAL POINT  MOCLDY    61  55  82 CALM      29.77S
MADISON        PTCLDY    53  50  89 S3        29.77R
6HR MIN TEMP:  52; 6HR MAX TEMP:  69;

MIDDLETON      PTCLDY    52  52 100 CALM      29.77S
WATERTOWN      CLEAR     53  53 100 CALM      29.77S
MONROE         DRIZZLE   59  52  77 S6        29.77S
JANESVILLE     CLEAR     54  54 100 SE5       29.77R
$$

WIZ051-052-058>065-066-070>072-260700-
SOUTHEAST WISCONSIN

CITY           SKY/WX    TMP DP  RH WIND       PRES   REMARKS
MILWAUKEE      CLEAR     52  50  93 E3        29.78S
6HR MIN TEMP:  52; 6HR MAX TEMP:  58;

WAUKESHA       CLEAR     48  48 100 CALM      29.79F FOG
MILWAUKEE/TIMM   N/A     52  46  82 CALM      29.79S
RACINE         CLEAR     50  48  93 N3        29.79S
6HR MIN TEMP:  50; 6HR MAX TEMP:  57;

KENOSHA        CLEAR     51  48  89 CALM      29.77F
6HR MIN TEMP:  50; 6HR MAX TEMP:  62;

FOND DU LAC    PTCLDY    52  49  89 NE3       29.77F
6HR MIN TEMP:  52; 6HR MAX TEMP:  68;

SHEBOYGAN      CLEAR     50  50 100 N3        29.78S
6HR MIN TEMP:  49; 6HR MAX TEMP:  61;

WEST BEND      CLEAR     48  48 100 CALM      29.78S
JUNEAU         CLOUDY    55  52  92 CALM      29.78S
$$

LSZ147-162-260700-
LAKE SUPERIOR

STATION/POSITION TIME  TEMP    WIND        PRES    WAVE
                       AIR SEA DIR/SP/G            HT/PER
                 (UTC) (F)     (DEG/KT/KT) (MB)    (FT/S)
W MID LAKE BUOY  0450   42 37   90/  8/ 10 1007.4F   1
DEVILS ISLAND    0500   43     360/  3/  4 1007.4S
PORT WING        0540   42      30/  7/  8 1007.1S
SAXON HARBOR     0540   45     210/  3/  4 1006.8R
$$

LMZ867-665-643>646-260700-
LAKE MICHIGAN

STATION/POSITION TIME  TEMP    WIND        PRES    WAVE
                       AIR SEA DIR/SP/G            HT/PER
                 (UTC) (F)     (DEG/KT/KT) (MB)    (FT/S)
CHAMBERS ISLAND  0540   50     240/  3/  4 1008.1S
N MID LAKE BUOY  0450   46 41   40/ 10/ 12 1008.9R   0
NORTHPORT PIER   0540   50     350/  3/  5 1008.5S
SISTER BAY       0336   50     330/  8/  9   N/A
KEWAUNEE LAKESHO 0530   52     290/  3/  4 1008.2R
SHEBOYGAN LAKESH 0500   53      20/ 10/ 11 1008.3R
PORT WASHINGTON  0530   54     280/  2/  3 1009.5R
ATWATER BUOY     0409   51     340/  4/  4 1008.3R
MILWAUKEE LAKESH 0530   53        CALM       N/A
S MID LAKE BUOY  0450   48 45  350/ 10/ 10 1007.7R   2/ 5
KENOSHA   LAKESH 0500   56     290/  3/  5 1008.5
$$

TC  - TEMPERATURE IN CELSIUS
VSB - VISIBILITY IN STATUTE MILES
WCI - WIND CHILL INDEX
HX  - HEAT INDEX





USA.gov is the U.S. government's official web portal to all federal, state and local government web resources and services.